Overview Statistics Trail Chart Weather Telemetry Raw packets
 

This is the latest recevied weather packets stored in our database for station/object OK2ZA-6. If no packets are shown the sender has not sent any weather packets the latest 10 day(s).

<< 29 30 31 32 33 34 35 >>
Time Temp. Humidity Pressure Rain* Wind** Luminosity Snow
1788264025 23.33° C 44% 1020.5 hPa 0 mm - - -
1788263404 23.33° C 44% 1020.6 hPa 0 mm - - -
1788262804 23.33° C 46% 1020.6 hPa 0 mm - - -
1788262219 22.78° C 46% 1020.6 hPa 0 mm - - -
1788261604 23.33° C 46% 1020.7 hPa 0 mm - - -
1788261004 22.78° C 49% 1020.6 hPa 0 mm - - -
1788260404 22.22° C 50% 1020.7 hPa 0 mm - - -
1788259804 22.22° C 51% 1020.8 hPa 0 mm - - -
1788259204 21.67° C 54% 1020.9 hPa 0 mm - - -
1788258604 21.11° C 55% 1020.8 hPa 0 mm - - -
1788258004 21.11° C 53% 1020.8 hPa 0 mm - - -
1788257404 21.67° C 53% 1020.7 hPa 0 mm - - -
1788256804 21.11° C 55% 1020.9 hPa 0 mm - - -
1788256204 21.11° C 54% 1020.8 hPa 0 mm - - -
1788255604 21.67° C 55% 1020.8 hPa 0 mm - - -
1788255004 21.11° C 56% 1020.8 hPa 0 mm - - -
1788254408 21.11° C 58% 1020.8 hPa 0 mm - - -
1788253804 20.56° C 59% 1020.8 hPa 0 mm - - -
1788253204 20° C 59% 1020.8 hPa 0 mm - - -
1788252604 20° C 59% 1020.7 hPa 0 mm - - -
1788252004 20° C 62% 1020.7 hPa 0 mm - - -
1788251404 19.44° C 64% 1020.6 hPa 0 mm - - -
1788250804 19.44° C 63% 1020.5 hPa 0 mm - - -
1788250204 20° C 64% 1020.6 hPa 0 mm - - -
1788249604 19.44° C 64% 1020.5 hPa 0 mm - - -

* Rain latest hour (hover to see other rain measurements)
** Current wind speed in m/s (hover to see current wind gust speed)